Date String (YYYY-MM-DD hh:mm:ss) UTC,Instrument flags,Ambient pressure (hPa),Sample flow (lpm),Bypass flow (lpm),Sample temperature (°C),Ambient temperature (°C),ASC tube jacket temperature (°C),LED temperature (°C),Box temperature (°C),Sample RH (%),Span deviation,Mass concentration (μg/m³),Mass concentration (μg/m³),Mass concentration (μg/m³)
DateTimeUTC,F1_M11,P_M11,Q1_M11,Q2_M11,T1_M11,T2_M11,T3_M11,T4_M11,T5_M11,U1_M11,ZSPAN_M11,X0_M11,X2_M11,X1_M11
2022-03-13 16:00:00,,0821.0,5.00,0.00,23.7,23.1,00.0,32.7,25.5,11.2,0000.0,0008.32,0002.84,0002.08
2022-03-13 16:01:00,,0820.9,5.00,0.00,23.7,23.1,00.0,32.7,25.5,11.5,0000.0,0008.05,0002.91,0002.10
2022-03-13 16:02:00,,0821.0,5.01,0.00,23.7,23.1,00.0,32.7,25.5,11.5,0000.0,0007.69,0002.91,0002.11
2022-03-13 16:03:00,,0820.9,4.99,0.00,23.7,23.1,00.0,32.7,25.5,11.7,0000.0,0007.65,0002.93,0002.13
2022-03-13 16:04:00,,0820.9,5.00,0.00,23.7,23.1,00.0,32.7,25.5,11.8,0000.0,0007.62,0002.97,0002.15
2022-03-13 16:05:00,,0820.8,5.01,0.00,23.8,23.1,00.0,32.7,25.5,11.7,0000.0,0006.74,0002.97,0002.16
2022-03-13 16:06:00,,0820.9,4.99,0.00,23.8,23.1,00.0,32.7,25.6,11.7,0000.0,0006.11,0003.00,0002.15
2022-03-13 16:07:00,,0820.9,5.01,0.00,23.8,23.1,00.0,32.7,25.6,11.8,0000.0,0006.23,0003.05,0002.16
2022-03-13 16:08:00,,0820.9,4.99,0.00,23.8,23.1,00.0,32.7,25.6,11.6,0000.0,0005.91,0003.09,0002.18
2022-03-13 16:09:00,,0820.8,5.00,0.00,23.8,23.2,00.0,32.7,25.6,11.7,0000.0,0005.35,0003.12,0002.20
2022-03-13 16:10:00,,0820.7,5.00,0.00,23.8,23.2,00.0,32.7,25.6,11.5,0000.0,0005.85,0003.12,0002.21
2022-03-13 16:11:00,,0820.7,4.99,0.00,23.8,23.2,00.0,32.7,25.6,11.8,0000.0,0006.49,0003.15,0002.23
2022-03-13 16:12:00,,0820.7,5.01,0.00,23.9,23.2,00.0,32.7,25.6,11.6,0000.0,0006.36,0003.13,0002.23
2022-03-13 16:13:00,,0820.7,5.00,0.00,23.9,23.2,00.0,32.7,25.7,11.8,0000.0,0006.28,0003.14,0002.24
2022-03-13 16:14:00,,0820.7,5.01,0.00,23.9,23.3,00.0,32.7,25.7,11.9,0000.0,0006.23,0003.13,0002.23
2022-03-13 16:15:00,,0820.7,5.01,0.00,23.9,23.3,00.0,32.8,25.7,11.6,0000.0,0006.26,0003.12,0002.22
2022-03-13 16:16:00,,0820.7,4.99,0.00,23.9,23.3,00.0,32.8,25.7,11.5,0000.0,0006.35,0003.13,0002.23
2022-03-13 16:17:00,,0820.6,5.00,0.00,23.9,23.3,00.0,32.8,25.7,11.5,0000.0,0006.33,0003.13,0002.23
2022-03-13 16:18:00,,0820.6,4.99,0.00,24.0,23.3,00.0,32.8,25.8,11.4,0000.0,0006.62,0003.06,0002.20
2022-03-13 16:19:00,,0820.6,5.01,0.00,24.0,23.3,00.0,32.8,25.8,11.2,0000.0,0007.04,0003.04,0002.18
2022-03-13 16:20:00,,0820.6,4.99,0.00,24.0,23.3,00.0,32.8,25.8,11.4,0000.0,0006.99,0003.00,0002.16
2022-03-13 16:21:00,,0820.6,5.00,0.00,24.0,23.4,00.0,32.8,25.9,11.5,0000.0,0006.44,0002.96,0002.16
2022-03-13 16:22:00,,0820.6,5.00,0.00,24.0,23.4,00.0,32.9,25.9,11.7,0000.0,0005.64,0002.87,0002.15
2022-03-13 16:23:00,,0820.6,5.00,0.00,24.0,23.4,00.0,32.9,25.9,11.8,0000.0,0005.61,0002.88,0002.15
2022-03-13 16:24:00,,0820.6,5.01,0.00,24.0,23.4,00.0,32.9,25.9,11.7,0000.0,0006.02,0002.90,0002.15
2022-03-13 16:25:00,,0820.5,4.99,0.00,24.0,23.4,00.0,32.9,25.9,11.5,0000.0,0006.22,0002.92,0002.17
2022-03-13 16:26:00,,0820.6,5.01,0.00,24.1,23.4,00.0,32.9,25.9,11.4,0000.0,0007.25,0002.94,0002.21
2022-03-13 16:27:00,,0820.5,4.99,0.00,24.1,23.4,00.0,32.9,26.0,11.3,0000.0,0007.35,0002.93,0002.22
2022-03-13 16:28:00,,0820.6,5.00,0.00,24.1,23.5,00.0,32.9,26.0,11.4,0000.0,0007.21,0002.88,0002.22
2022-03-13 16:29:00,,0820.6,5.00,0.00,24.1,23.5,00.0,32.9,26.0,11.6,0000.0,0006.77,0002.90,0002.26
2022-03-13 16:30:00,,0820.6,5.01,0.00,24.1,23.5,00.0,33.0,26.0,11.6,0000.0,0006.39,0002.94,0002.29
2022-03-13 16:31:00,,0820.6,4.99,0.00,24.2,23.5,00.0,33.0,26.1,11.4,0000.0,0006.62,0002.94,0002.32
2022-03-13 16:32:00,,0820.6,5.01,0.00,24.2,23.6,00.0,33.0,26.1,11.4,0000.0,0006.74,0002.99,0002.34
2022-03-13 16:33:00,,0820.6,5.01,0.00,24.2,23.6,00.0,33.0,26.1,11.6,0000.0,0006.93,0003.05,0002.37
2022-03-13 16:34:00,,0820.6,5.00,0.00,24.3,23.6,00.0,33.0,26.1,11.7,0000.0,0006.90,0003.02,0002.37
2022-03-13 16:35:00,,0820.5,5.00,0.00,24.3,23.6,00.0,33.1,26.2,11.6,0000.0,0006.75,0002.98,0002.39
2022-03-13 16:36:00,,0820.5,5.01,0.00,24.3,23.7,00.0,33.1,26.2,11.6,0000.0,0006.78,0002.99,0002.40
2022-03-13 16:37:00,,0820.3,5.00,0.00,24.3,23.7,00.0,33.1,26.3,11.4,0000.0,0005.71,0002.99,0002.41
2022-03-13 16:38:00,,0820.3,4.99,0.00,24.4,23.7,00.0,33.1,26.3,11.6,0000.0,0005.21,0002.96,0002.41
2022-03-13 16:39:00,,0820.4,5.00,0.00,24.4,23.7,00.0,33.1,26.3,11.6,0000.0,0005.31,0003.01,0002.42
2022-03-13 16:40:00,,0820.4,5.01,0.00,24.4,23.8,00.0,33.2,26.3,11.7,0000.0,0005.96,0003.05,0002.43
2022-03-13 16:41:00,,0820.3,5.00,0.00,24.4,23.8,00.0,33.2,26.3,11.5,0000.0,0006.29,0003.10,0002.44
2022-03-13 16:42:00,,0820.3,5.00,0.00,24.5,23.8,00.0,33.2,26.4,12.1,0000.0,0005.96,0003.12,0002.45
2022-03-13 16:43:00,,0820.3,5.00,0.00,24.5,23.8,00.0,33.2,26.4,11.7,0000.0,0005.91,0003.12,0002.46
2022-03-13 16:44:00,,0820.3,4.99,0.00,24.5,23.9,00.0,33.3,26.4,11.6,0000.0,0005.78,0003.10,0002.47
2022-03-13 16:45:00,,0820.3,5.00,0.00,24.5,23.9,00.0,33.3,26.5,11.4,0000.0,0005.88,0003.15,0002.49
2022-03-13 16:46:00,,0820.3,5.01,0.00,24.6,23.9,00.0,33.3,26.5,11.4,0000.0,0005.62,0003.16,0002.51
2022-03-13 16:47:00,,0820.3,5.00,0.00,24.6,23.9,00.0,33.3,26.5,11.1,0000.0,0005.62,0003.16,0002.50
2022-03-13 16:48:00,,0820.3,4.99,0.00,24.6,24.0,00.0,33.4,26.6,11.4,0000.0,0005.68,0003.16,0002.51
2022-03-13 16:49:00,,0820.3,5.00,0.00,24.6,24.0,00.0,33.4,26.6,11.7,0000.0,0005.95,0003.19,0002.53
2022-03-13 16:50:00,,0820.3,5.01,0.00,24.7,24.0,00.0,33.4,26.6,11.5,0000.0,0006.06,0003.20,0002.55
2022-03-13 16:51:00,,0820.3,4.99,0.00,24.7,24.0,00.0,33.4,26.6,11.7,0000.0,0005.69,0003.20,0002.56
2022-03-13 16:52:00,,0820.3,5.01,0.00,24.7,24.0,00.0,33.5,26.6,11.6,0000.0,0006.76,0003.18,0002.57
2022-03-13 16:53:00,,0820.2,5.00,0.00,24.7,24.0,00.0,33.5,26.6,11.3,0000.0,0006.76,0003.17,0002.57
2022-03-13 16:54:00,,0820.3,4.99,0.00,24.7,24.0,00.0,33.5,26.6,11.3,0000.0,0006.91,0003.19,0002.57
2022-03-13 16:55:00,,0820.3,5.01,0.00,24.8,24.0,00.0,33.5,26.7,11.4,0000.0,0006.96,0003.20,0002.58
2022-03-13 16:56:00,,0820.2,4.99,0.00,24.8,24.1,00.0,33.5,26.7,11.6,0000.0,0007.25,0003.19,0002.57
2022-03-13 16:57:00,,0820.3,5.01,0.00,24.8,24.1,00.0,33.6,26.7,11.6,0000.0,0007.60,0003.19,0002.56
2022-03-13 16:58:00,,0820.2,5.00,0.00,24.8,24.1,00.0,33.6,26.7,11.3,0000.0,0007.58,0003.20,0002.57
2022-03-13 16:59:00,,0820.3,4.99,0.00,24.8,24.1,00.0,33.6,26.7,11.0,0000.0,0007.56,0003.20,0002.56
